Stations météo

réclame
Mon MeteoGroup
Oostende Airport, Belgique (6407): Température de l'air & dewpoint: 20.05.2018 23:00:00 - 26.05.2018 23:00:00 (CEST)Oostende Airport, Belgique (6407): Vitesse du vent & gusts: 20.05.2018 23:00:00 - 26.05.2018 23:00:00 (CEST)Oostende Airport, Belgique (6407): Direction du vent: 20.05.2018 23:00:00 - 26.05.2018 23:00:00 (CEST)Oostende Airport, Belgique (6407): reduced air pressure: 20.05.2018 23:00:00 - 26.05.2018 23:00:00 (CEST)Oostende Airport, Belgique (6407): visibility: 20.05.2018 23:00:00 - 26.05.2018 23:00:00 (CEST)
Date & Time tt [°C] td [°C] ff [km/h] ff [knt] fx [km/h] fx [knt] dd ppp [hPa] vv [km]
26.05.2018 23:00:00 22,0 15,5 18 10 - - ENE 1017,8 10
26.05.2018 22:00:00 22,3 15,8 18 10 22 12 NE 1017,7 10
26.05.2018 21:00:00 22,4 15,7 16 9 22 12 NE 1017,5 10
26.05.2018 20:00:00 23,2 15,9 16 9 - - NE 1017,7 10
26.05.2018 19:00:00 23,2 15,7 22 12 32 18 NE 1017,8 10
26.05.2018 18:00:00 23,8 16,2 21 11 29 16 NNE 1018,0 10
26.05.2018 17:00:00 24,7 16,9 16 9 - - NNE 1018,3 10
26.05.2018 16:00:00 24,1 16,7 21 11 35 19 NNE 1018,7 10
26.05.2018 15:00:00 24,2 17,3 21 11 26 14 NNE 1019,0 9
26.05.2018 14:00:00 24,1 17,6 16 9 - - N 1019,3 10
26.05.2018 13:00:00 24,6 17,7 16 9 25 14 NE 1019,2 8
26.05.2018 12:00:00 22,8 17,0 15 8 25 14 NE 1019,4 7
26.05.2018 11:00:00 20,1 15,7 11 6 - - NE 1019,5 6
26.05.2018 10:00:00 16,6 13,9 8 4 18 10 NE 1019,3 5
26.05.2018 09:00:00 13,9 12,2 11 6 15 8 N 1019,3 5
26.05.2018 08:00:00 13,7 12,0 8 4 - - WNW 1019,3 4,5
26.05.2018 07:00:00 13,4 11,6 4 2 11 6 NNW 1018,9 3,5
26.05.2018 06:00:00 12,8 11,0 5 3 14 8 SW 1019,1 4,2
26.05.2018 05:00:00 13,1 11,2 5 3 - - N 1018,8 6
26.05.2018 04:00:00 13,1 11,2 5 3 11 6 N 1019,0 6
26.05.2018 03:00:00 12,9 11,1 8 4 11 6 N 1019,1 3,2
26.05.2018 02:00:00 12,7 11,2 8 4 - - NNE 1019,5 0,8
26.05.2018 01:00:00 12,5 11,2 8 4 14 8 NNE 1019,5 0,3
26.05.2018 00:00:00 12,5 11,1 9 5 18 10 NNE 1019,4 0,3
25.05.2018 23:00:00 12,5 10,9 13 7 - - NNE 1019,7 0,5
25.05.2018 22:00:00 12,7 11,3 15 8 22 12 NNE 1019,5 0,3
25.05.2018 21:00:00 13,2 11,6 15 8 22 12 N 1019,1 1,2
25.05.2018 20:00:00 13,9 11,9 13 7 - - N 1019,1 2,5
25.05.2018 19:00:00 14,7 12,2 15 8 22 12 NNW 1018,9 3,2
25.05.2018 18:00:00 15,9 12,8 15 8 22 12 NNW 1019,1 4,3
25.05.2018 17:00:00 15,8 12,6 13 7 - - NNW 1019,5 4,0
25.05.2018 16:00:00 15,7 12,8 14 8 18 10 NW 1019,4 4,0
25.05.2018 15:00:00 15,2 12,5 9 5 14 8 NW 1019,3 4,0
25.05.2018 14:00:00 14,9 12,2 9 5 - - NW 1019,1 4,0
25.05.2018 13:00:00 14,6 12,2 13 7 18 10 W 1019,0 3,7
25.05.2018 12:00:00 14,0 12,0 11 6 14 8 W 1018,9 2,5
25.05.2018 11:00:00 13,9 12,1 9 5 - - SW 1018,5 0,8
25.05.2018 10:00:00 13,5 11,9 9 5 14 8 SSW 1018,4 0,3
25.05.2018 09:00:00 13,3 11,6 9 5 14 8 SW 1018,0 0,3
25.05.2018 08:00:00 12,7 11,1 7 4 - - SSW 1017,6 0,2
25.05.2018 07:00:00 12,8 11,4 5 3 14 8 SW 1017,2 0,1
25.05.2018 06:00:00 13,0 11,6 11 6 14 8 SSW 1016,9 0,2
25.05.2018 05:00:00 13,4 11,8 4 2 - - SSW 1016,5 0,4
25.05.2018 04:00:00 - - - - - - - - -
25.05.2018 03:00:00 13,9 12,1 5 3 7 4 S 1016,5 2,8
25.05.2018 02:00:00 14,8 13,0 4 2 - - - 1016,5 3,5
25.05.2018 01:00:00 14,9 13,0 2 1 11 6 - 1016,9 3,5
25.05.2018 00:00:00 15,1 13,3 4 2 7 4 ESE 1017,0 3,5
24.05.2018 23:00:00 15,2 13,4 2 1 - - - 1016,9 4,0
24.05.2018 22:00:00 15,4 13,3 9 5 18 10 NW 1016,3 8
24.05.2018 21:00:00 16,0 14,0 11 6 26 14 E 1016,9 4,0
24.05.2018 20:00:00 16,2 13,8 15 8 - - NE 1016,4 8
24.05.2018 19:00:00 16,8 13,0 18 10 36 19 NNE 1016,4 10
24.05.2018 18:00:00 17,9 13,1 22 12 36 19 NNE 1016,6 12
24.05.2018 17:00:00 18,3 13,2 24 13 - - NNE 1016,6 10
24.05.2018 16:00:00 19,0 13,4 28 15 40 21 NNE 1017,3 10
24.05.2018 15:00:00 19,0 12,9 28 15 39 21 NNE 1017,8 10
24.05.2018 14:00:00 20,1 12,9 26 14 - - NNE 1018,2 10
24.05.2018 13:00:00 22,3 13,5 15 8 25 14 NNE 1018,5 10
24.05.2018 12:00:00 20,7 13,3 11 6 22 12 E 1019,2 10
24.05.2018 11:00:00 18,5 11,9 13 7 - - ENE 1019,1 10
24.05.2018 10:00:00 17,0 11,4 16 9 22 12 E 1019,6 10
24.05.2018 09:00:00 17,3 11,7 13 7 22 12 ENE 1019,5 10
24.05.2018 08:00:00 16,0 11,3 15 8 - - ENE 1019,4 10
24.05.2018 07:00:00 16,0 11,5 15 8 22 12 NE 1019,4 10
24.05.2018 06:00:00 14,7 11,8 8 4 11 6 NE 1019,5 8
24.05.2018 05:00:00 14,3 12,2 8 4 - - NNE 1019,9 3,5
24.05.2018 04:00:00 14,3 12,2 8 4 11 6 N 1020,0 4,0
24.05.2018 03:00:00 14,5 12,5 5 3 22 12 N 1020,3 4,0
24.05.2018 02:00:00 15,0 12,8 4 2 - - ENE 1020,7 5
24.05.2018 01:00:00 14,7 12,3 9 5 14 8 NNE 1020,6 6
24.05.2018 00:00:00 15,1 13,2 5 3 7 4 NNW 1020,6 6
23.05.2018 23:00:00 15,6 13,3 5 3 - - NE 1020,5 7
23.05.2018 22:00:00 16,0 13,0 13 7 25 14 E 1020,8 4,0
23.05.2018 21:00:00 15,0 12,0 15 8 - - N - 10
23.05.2018 20:00:00 15,1 11,6 15 8 - - N 1019,9 10
23.05.2018 19:00:00 15,6 11,8 16 9 26 14 N 1020,1 10
23.05.2018 18:00:00 16,1 12,3 21 11 29 16 N 1020,4 10
23.05.2018 17:00:00 17,0 12,4 21 11 - - N 1020,3 10
23.05.2018 16:00:00 17,1 12,7 22 12 31 17 NNE 1020,8 10
23.05.2018 15:00:00 15,3 12,3 21 11 29 16 N 1021,2 10
23.05.2018 14:00:00 14,1 11,4 16 9 - - N 1021,3 10
23.05.2018 13:00:00 13,6 11,2 18 10 29 16 N 1021,3 8
23.05.2018 12:00:00 12,9 11,0 18 10 29 16 N 1021,2 6
23.05.2018 11:00:00 13,7 11,6 22 12 - - N 1020,9 6
23.05.2018 10:00:00 13,0 10,6 22 12 32 18 N 1020,7 8
23.05.2018 09:00:00 12,8 10,5 21 11 32 18 N 1020,1 9
23.05.2018 08:00:00 12,6 10,2 25 14 - - N 1019,7 9
23.05.2018 07:00:00 12,0 9,7 16 9 29 16 N 1019,1 9
23.05.2018 06:00:00 11,9 9,9 16 9 32 18 N 1018,8 8
23.05.2018 05:00:00 12,1 9,8 21 11 - - N 1018,6 10
23.05.2018 04:00:00 12,7 9,4 21 11 32 18 N 1018,3 10
23.05.2018 03:00:00 12,5 9,6 22 12 36 19 N 1017,9 10
23.05.2018 02:00:00 12,3 9,7 22 12 - - N 1017,9 12
23.05.2018 01:00:00 12,6 9,8 21 11 32 18 N 1017,8 10
23.05.2018 00:00:00 12,5 9,8 22 12 32 18 N 1017,3 10
22.05.2018 23:00:00 12,6 10,1 21 11 - - NNW 1017,1 10
22.05.2018 22:00:00 13,2 10,4 15 8 22 12 N 1016,7 10
22.05.2018 21:00:00 14,0 10,7 15 8 32 18 N 1016,2 10
22.05.2018 20:00:00 14,7 10,5 24 13 - - N 1015,8 10
22.05.2018 19:00:00 15,5 11,1 21 11 29 16 N 1015,7 10
22.05.2018 18:00:00 15,4 11,3 16 9 25 14 NNW 1015,2 10
22.05.2018 17:00:00 15,1 11,1 18 10 - - N 1014,8 10
22.05.2018 16:00:00 14,7 10,9 21 11 29 16 NNW 1014,8 10
22.05.2018 15:00:00 15,9 11,5 18 10 29 16 NNW 1014,8 10
22.05.2018 14:00:00 16,6 11,5 22 12 - - NNW 1014,5 10
22.05.2018 13:00:00 16,3 11,2 21 11 25 14 NNW 1014,4 10
22.05.2018 12:00:00 16,2 11,8 16 9 22 12 NNW 1014,4 10
22.05.2018 11:00:00 16,5 11,6 15 8 - - NNW 1014,0 10
22.05.2018 10:00:00 15,6 11,7 11 6 14 8 NNW 1013,8 10
22.05.2018 09:00:00 14,7 11,4 8 4 14 8 N 1013,5 10
22.05.2018 08:00:00 14,8 11,3 9 5 - - NNW 1013,0 10
22.05.2018 07:00:00 13,9 10,6 11 6 14 8 N 1012,7 10
22.05.2018 06:00:00 12,1 10,1 8 4 14 8 NNE 1012,5 10
22.05.2018 05:00:00 12,3 10,4 11 6 - - WNW 1012,1 10
22.05.2018 04:00:00 14,3 10,7 5 3 22 12 SE 1011,9 10
22.05.2018 03:00:00 15,1 11,6 11 6 18 10 NNE 1012,1 10
22.05.2018 02:00:00 15,8 10,4 4 2 - - - 1012,5 10
22.05.2018 01:00:00 16,7 10,1 9 5 22 12 NE 1012,5 10
22.05.2018 00:00:00 17,0 10,3 9 5 18 10 E 1012,4 10
21.05.2018 23:00:00 16,7 9,9 9 5 - - ENE 1012,5 10
21.05.2018 22:00:00 14,9 10,8 13 7 18 10 NNE 1012,7 10
21.05.2018 21:00:00 15,5 10,4 13 7 22 12 N 1012,6 10
21.05.2018 20:00:00 15,8 10,6 13 7 - - N 1012,6 10
21.05.2018 19:00:00 16,5 10,2 22 12 29 16 N 1012,8 10
21.05.2018 18:00:00 17,2 9,4 18 10 29 16 N 1013,2 10
21.05.2018 17:00:00 16,8 9,7 18 10 - - N 1013,8 10
21.05.2018 16:00:00 17,9 10,7 22 12 32 18 NNE 1014,2 10
21.05.2018 15:00:00 15,5 10,7 18 10 26 14 N 1014,6 10
21.05.2018 14:00:00 16,9 11,8 11 6 - - N 1015,1 18
21.05.2018 13:00:00 16,7 12,3 11 6 18 10 N 1015,5 10
21.05.2018 12:00:00 17,1 12,8 11 6 25 14 NE 1015,8 10
21.05.2018 11:00:00 19,6 12,4 11 6 - - ENE 1016,0 10
21.05.2018 10:00:00 14,9 11,7 7 4 14 8 ENE 1016,1 6
21.05.2018 09:00:00 14,0 11,1 8 4 14 8 N 1016,2 5
21.05.2018 08:00:00 13,8 11,1 8 4 - - ENE 1017,1 5
21.05.2018 07:00:00 10,9 8,5 4 2 7 4 - 1017,1 3,0
21.05.2018 06:00:00 10,9 8,4 5 3 7 4 NNE 1017,2 3,5
21.05.2018 05:00:00 10,5 8,3 5 3 - - NNE 1017,7 3,0
21.05.2018 04:00:00 10,6 8,5 2 1 7 4 NNE 1018,2 3,0
21.05.2018 03:00:00 11,8 9,1 4 2 11 6 - 1018,8 3,2
21.05.2018 02:00:00 12,1 9,5 5 3 - - NE 1019,0 4,0
21.05.2018 01:00:00 12,0 9,4 5 3 22 12 NE 1019,3 4,5
21.05.2018 00:00:00 12,2 9,7 13 7 22 12 NNE 1020,0 6
20.05.2018 23:00:00 11,6 8,9 13 7 - - NNE 1020,5 5

tt = Température de l'air
td = dewpoint
ff = Vitesse du vent
fx = gusts
dd = Direction du vent
ppp = reduced air pressure
vv = visibility

stations d'obs. à proximité